Washington, PA

3:01 PM EDT on May 29, 2017 (GMT -0400)
Washington County

Weather History for KAFJ - February, 2014

Change the Weather History Date:

Tuesday, February 18, 2014

  Actual Average Record
Temperature  
Mean Temperature 37 °F -  
Max Temperature 44 °F 39 °F 66 °F (2017)
Min Temperature 30 °F 23 °F 3 °F (2013)
Degree Days  
Heating Degree Days 28    
Moisture  
Dew Point 26 °F    
Average Humidity 66    
Maximum Humidity 93    
Minimum Humidity 39    
Precipitation  
Precipitation 0.07 in - - ()
Sea Level Pressure  
Sea Level Pressure 29.95 in    
Wind  
Wind Speed 13 mph (SW)    
Max Wind Speed 25 mph    
Max Gust Speed 40 mph    
Visibility 10 miles    
Events      
Averages and records for this station are not official NWS values.
T = Trace of Precipitation, MM = Missing Value Source: NWS Daily Summary

Daily Weather History Graph

Daily Weather History Graph

Search for Another Location

Airport or City:

Trip Planner

Search our weather history database for the weather conditions in past years. The results will help you decide how hot, cold, wet, or windy it might be!

Date:

Astronomy

Feb. 18, 2014 Rise Set
Actual Time 7:10 AM EST 6:00 PM EST
Civil Twilight 6:42 AM EST 6:28 PM EST
Nautical Twilight 6:10 AM EST 6:59 PM EST
Astronomical Twilight 5:39 AM EST 7:31 PM EST
Moon 9:52 PM EST (2/18) 8:41 AM EST (2/18)
Length of Visible Light 11h 45m
Length of Day
10h 50m
Waning Gibbous, 87% of the Moon is Illuminated
Feb 18
Waning Gibbous
Feb 22
Last Quarter
Mar 1
New
Mar 8
First Quarter
Mar 16
Full

Hourly Weather History & Observations

Time (EST) Temp. Windchill Dew Point Humidity Pressure Visibility Wind Dir Wind Speed Gust Speed Precip Events Conditions
12:15 AM 32.0 °F 24.8 °F 30.2 °F 93% 29.81 in 2.5 mi South 8.1 mph - N/A   Overcast
12:35 AM 33.8 °F 27.0 °F 30.2 °F 87% 29.83 in 8.0 mi South 8.1 mph - 0.02 in   Overcast
12:55 AM 33.8 °F 23.9 °F 32.0 °F 93% 29.83 in 10.0 mi SSW 15.0 mph 19.6 mph 0.03 in   Overcast
1:15 AM 37.4 °F 28.9 °F 32.0 °F 81% 29.84 in 10.0 mi SW 13.8 mph 28.8 mph 0.01 in   Overcast
1:35 AM 37.4 °F 29.8 °F 32.0 °F 81% 29.84 in 10.0 mi SW 11.5 mph 21.9 mph 0.02 in   Overcast
1:55 AM 37.4 °F 28.5 °F 32.0 °F 81% 29.85 in 9.0 mi WSW 15.0 mph 21.9 mph 0.03 in   Overcast
2:15 AM 37.4 °F 27.8 °F 30.2 °F 75% 29.85 in 10.0 mi SW 17.3 mph 27.6 mph N/A   Overcast
2:35 AM 37.4 °F 27.5 °F 30.2 °F 75% 29.85 in 10.0 mi SW 18.4 mph 27.6 mph N/A   Mostly Cloudy
2:55 AM 37.4 °F 27.5 °F 28.4 °F 70% 29.85 in 10.0 mi SW 18.4 mph 27.6 mph N/A   Overcast
3:15 AM 37.4 °F 27.2 °F 28.4 °F 70% 29.84 in 10.0 mi SW 19.6 mph 28.8 mph N/A   Overcast
3:35 AM 35.6 °F 24.8 °F 28.4 °F 75% 29.84 in 10.0 mi SW 19.6 mph 31.1 mph N/A   Overcast
3:55 AM 35.6 °F 26.2 °F 30.2 °F 81% 29.84 in 8.0 mi SW 15.0 mph 27.6 mph N/A   Overcast
4:15 AM 35.6 °F 24.5 °F 30.2 °F 81% 29.83 in 9.0 mi SSW 20.7 mph 31.1 mph 0.01 in   Overcast
4:35 AM 35.6 °F 24.0 °F 28.4 °F 75% 29.84 in 8.0 mi SW 23.0 mph 39.1 mph 0.01 in   Overcast
4:55 AM 35.6 °F 24.8 °F 28.4 °F 75% 29.84 in 10.0 mi SW 19.6 mph 31.1 mph 0.01 in   Overcast
5:15 AM 37.4 °F 26.6 °F 28.4 °F 70% 29.84 in 10.0 mi SW 21.9 mph 31.1 mph N/A   Overcast
5:35 AM 35.6 °F 24.0 °F 28.4 °F 75% 29.84 in 10.0 mi SW 23.0 mph 40.3 mph N/A   Overcast
5:55 AM 37.4 °F 26.4 °F 28.4 °F 70% 29.84 in 10.0 mi SW 23.0 mph 39.1 mph N/A   Overcast
6:15 AM 37.4 °F 25.9 °F 28.4 °F 70% 29.85 in 10.0 mi SW 25.3 mph 33.4 mph N/A   Overcast
6:35 AM 37.4 °F 26.4 °F 26.6 °F 65% 29.86 in 10.0 mi SW 23.0 mph 31.1 mph N/A   Overcast
6:55 AM 37.4 °F 27.5 °F 28.4 °F 70% 29.87 in 10.0 mi WSW 18.4 mph 33.4 mph N/A   Overcast
7:15 AM 35.6 °F 25.5 °F 28.4 °F 75% 29.89 in 10.0 mi WSW 17.3 mph 33.4 mph N/A   Overcast
7:35 AM 35.6 °F 25.2 °F 28.4 °F 75% 29.90 in 10.0 mi WSW 18.4 mph 33.4 mph N/A   Overcast
7:55 AM 35.6 °F 25.5 °F 28.4 °F 75% 29.92 in 10.0 mi WSW 17.3 mph 28.8 mph N/A   Overcast
8:15 AM 35.6 °F 24.0 °F 28.4 °F 75% 29.94 in 10.0 mi West 23.0 mph 31.1 mph N/A   Overcast
8:35 AM 35.6 °F 24.0 °F 28.4 °F 75% 29.95 in 8.0 mi WSW 23.0 mph 29.9 mph N/A   Overcast
8:55 AM 35.6 °F 25.5 °F 28.4 °F 75% 29.96 in 9.0 mi WSW 17.3 mph 31.1 mph N/A   Overcast
9:15 AM 35.6 °F 25.2 °F 28.4 °F 75% 29.98 in 10.0 mi West 18.4 mph 25.3 mph N/A   Overcast
9:35 AM 35.6 °F 26.6 °F 28.4 °F 75% 29.98 in 10.0 mi WSW 13.8 mph 24.2 mph N/A   Overcast
9:55 AM 35.6 °F 25.9 °F 28.4 °F 75% 30.00 in 10.0 mi West 16.1 mph 25.3 mph N/A   Overcast
10:15 AM 35.6 °F 25.9 °F 26.6 °F 70% 30.01 in 10.0 mi West 16.1 mph 27.6 mph N/A   Overcast
10:35 AM 37.4 °F 28.9 °F 26.6 °F 65% 30.02 in 10.0 mi WSW 13.8 mph 21.9 mph N/A   Overcast
10:55 AM 37.4 °F 27.8 °F 26.6 °F 65% 30.03 in 10.0 mi WSW 17.3 mph 25.3 mph N/A   Overcast
11:15 AM 37.4 °F 28.9 °F 26.6 °F 65% 30.04 in 10.0 mi WSW 13.8 mph 24.2 mph N/A   Overcast
11:35 AM 37.4 °F 28.2 °F 26.6 °F 65% 30.05 in 10.0 mi West 16.1 mph 27.6 mph N/A   Overcast
11:55 AM 37.4 °F 28.5 °F 26.6 °F 65% 30.06 in 10.0 mi WSW 15.0 mph 25.3 mph N/A   Overcast
12:15 PM 37.4 °F 28.2 °F 26.6 °F 65% 30.06 in 10.0 mi WSW 16.1 mph 27.6 mph N/A   Overcast
12:35 PM 39.2 °F 29.6 °F 26.6 °F 61% 30.06 in 10.0 mi West 19.6 mph 26.5 mph N/A   Overcast
12:55 PM 39.2 °F 30.8 °F 26.6 °F 61% 30.06 in 10.0 mi West 15.0 mph 26.5 mph N/A   Overcast
1:15 PM 41.0 °F 33.1 °F 26.6 °F 57% 30.06 in 10.0 mi SW 15.0 mph 19.6 mph N/A   Mostly Cloudy
1:35 PM 41.0 °F 32.5 °F 26.6 °F 57% 30.07 in 10.0 mi WSW 17.3 mph 25.3 mph N/A   Mostly Cloudy
1:55 PM 42.8 °F 36.2 °F 26.6 °F 53% 30.06 in 10.0 mi WSW 12.7 mph 21.9 mph N/A   Partly Cloudy
2:15 PM 42.8 °F 35.8 °F 26.6 °F 53% 30.05 in 10.0 mi WSW 13.8 mph 21.9 mph N/A   Clear
2:35 PM 42.8 °F 35.8 °F 26.6 °F 53% 30.05 in 10.0 mi WSW 13.8 mph 19.6 mph N/A   Clear
2:55 PM 44.6 °F 38.8 °F 26.6 °F 49% 30.05 in 10.0 mi SW 11.5 mph - N/A   Clear
3:15 PM 44.6 °F 38.8 °F 26.6 °F 49% 30.05 in 10.0 mi SW 11.5 mph 18.4 mph N/A   Clear
3:35 PM 44.6 °F 39.7 °F 26.6 °F 49% 30.05 in 10.0 mi WSW 9.2 mph 16.1 mph N/A   Clear
3:55 PM 44.6 °F 38.8 °F 24.8 °F 46% 30.05 in 10.0 mi WSW 11.5 mph - N/A   Clear
4:15 PM 44.6 °F 37.4 °F 24.8 °F 46% 30.05 in 10.0 mi SW 16.1 mph - N/A   Clear
4:35 PM 44.6 °F 40.2 °F 24.8 °F 46% 30.05 in 10.0 mi SW 8.1 mph 18.4 mph N/A   Clear
4:55 PM 44.6 °F 40.2 °F 24.8 °F 46% 30.04 in 10.0 mi SW 8.1 mph - N/A   Clear
5:15 PM 44.6 °F 40.7 °F 23.0 °F 43% 30.04 in 10.0 mi SW 6.9 mph - N/A   Clear
5:35 PM 44.6 °F 42.2 °F 21.2 °F 39% 30.03 in 10.0 mi SSW 4.6 mph - N/A   Clear
5:55 PM 42.8 °F 41.1 °F 21.2 °F 42% 30.03 in 10.0 mi South 3.5 mph - N/A   Clear
6:15 PM 39.2 °F 37.0 °F 23.0 °F 52% 30.03 in 10.0 mi SSW 3.5 mph - N/A   Clear
6:35 PM 39.2 °F - 23.0 °F 52% 30.03 in 10.0 mi Calm Calm - N/A   Clear
6:55 PM 35.6 °F - 23.0 °F 60% 30.03 in 10.0 mi Calm Calm - N/A   Clear
7:15 PM 33.8 °F - 24.8 °F 70% 30.02 in 10.0 mi Calm Calm - N/A   Clear
7:35 PM 33.8 °F - 24.8 °F 70% 30.00 in 10.0 mi Calm Calm - N/A   Clear
7:55 PM 32.0 °F - 24.8 °F 75% 30.00 in 10.0 mi Calm Calm - N/A   Clear
8:15 PM 33.8 °F - 24.8 °F 70% 29.99 in 10.0 mi Calm Calm - N/A   Clear
8:35 PM 30.2 °F 25.4 °F 24.8 °F 80% 29.97 in 10.0 mi SSW 4.6 mph - N/A   Clear
8:55 PM 32.0 °F 28.7 °F 24.8 °F 75% 29.96 in 10.0 mi SSW 3.5 mph - N/A   Clear
9:15 PM 33.8 °F 30.8 °F 23.0 °F 65% 29.97 in 10.0 mi SSW 3.5 mph - N/A   Clear
9:35 PM 33.8 °F - 21.2 °F 60% 29.97 in 10.0 mi Calm Calm - N/A   Clear
9:55 PM 32.0 °F - 21.2 °F 64% 29.96 in 10.0 mi Calm Calm - N/A   Clear
10:15 PM 32.0 °F 25.6 °F 21.2 °F 64% 29.95 in 10.0 mi South 6.9 mph - N/A   Clear
10:35 PM 33.8 °F - 21.2 °F 60% 29.92 in 10.0 mi Calm Calm - N/A   Clear
10:55 PM 33.8 °F 30.8 °F 21.2 °F 60% 29.92 in 10.0 mi South 3.5 mph - N/A   Clear
11:15 PM 30.2 °F 26.7 °F 21.2 °F 69% 29.91 in 10.0 mi South 3.5 mph - N/A   Clear
11:35 PM 32.0 °F 27.5 °F 21.2 °F 64% 29.89 in 10.0 mi South 4.6 mph - N/A   Clear
11:55 PM 33.8 °F 28.6 °F 21.2 °F 60% 29.89 in 10.0 mi South 5.8 mph - N/A   Clear